Wetterdaten: Mittwoch, 15.07.2015
Datum Zeit Temp. A. Feuchte A. Luftdruck Regen Wind Richtung Richtung Sonnenschein ET UV Solar Taupunkt Windchill Windben Empfang
15.07.2015 00:00 18,5 C 82 % 1016,8 hPa 0,0 l/m 0,0 km/h (0 Bft) NO 40 0 min 0,000 mm 0,0 UV-I 0 W/m 15,4 C 18,5 C 0,0 km/h (0 Bft) 0,00 %
15.07.2015 00:05 18,4 C 82 % 1016,9 hPa 0,0 l/m 0,0 km/h (0 Bft) NO 40 0 min 0,000 mm 0,0 UV-I 0 W/m 15,3 C 18,4 C 0,0 km/h (0 Bft) 0,00 %
15.07.2015 00:10 18,4 C 82 % 1017,0 hPa 0,0 l/m 0,0 km/h (0 Bft) NO 40 0 min 0,000 mm 0,0 UV-I 0 W/m 15,3 C 18,4 C 0,0 km/h (0 Bft) 0,00 %
15.07.2015 00:15 18,4 C 82 % 1017,0 hPa 0,0 l/m 0,0 km/h (0 Bft) NO 44 0 min 0,000 mm 0,0 UV-I 0 W/m 15,3 C 18,4 C 0,0 km/h (0 Bft) 0,00 %
15.07.2015 00:20 18,4 C 82 % 1017,0 hPa 0,0 l/m 0,0 km/h (0 Bft) NO 43 0 min 0,000 mm 0,0 UV-I 0 W/m 15,3 C 18,4 C 0,0 km/h (0 Bft) 0,00 %
15.07.2015 00:25 18,4 C 82 % 1017,0 hPa 0,0 l/m 0,0 km/h (0 Bft) NO 36 0 min 0,000 mm 0,0 UV-I 0 W/m 15,3 C 18,4 C 0,0 km/h (0 Bft) 0,00 %
15.07.2015 00:30 18,4 C 82 % 1016,9 hPa 0,0 l/m 0,0 km/h (0 Bft) NO 41 0 min 0,000 mm 0,0 UV-I 0 W/m 15,3 C 18,4 C 0,0 km/h (0 Bft) 0,00 %
15.07.2015 00:35 18,4 C 82 % 1017,0 hPa 0,0 l/m 0,0 km/h (0 Bft) NO 36 0 min 0,000 mm 0,0 UV-I 0 W/m 15,3 C 18,4 C 0,0 km/h (0 Bft) 0,00 %
15.07.2015 00:40 18,4 C 82 % 1017,0 hPa 0,0 l/m 0,0 km/h (0 Bft) NO 36 0 min 0,000 mm 0,0 UV-I 0 W/m 15,3 C 18,4 C 0,0 km/h (0 Bft) 0,00 %
15.07.2015 00:45 18,4 C 82 % 1017,0 hPa 0,0 l/m 0,0 km/h (0 Bft) NO 36 0 min 0,000 mm 0,0 UV-I 0 W/m 15,3 C 18,4 C 0,0 km/h (0 Bft) 0,00 %
15.07.2015 00:50 18,4 C 82 % 1017,0 hPa 0,0 l/m 0,0 km/h (0 Bft) NO 35 0 min 0,000 mm 0,0 UV-I 0 W/m 15,3 C 18,4 C 0,0 km/h (0 Bft) 0,00 %
15.07.2015 00:55 18,4 C 82 % 1017,2 hPa 0,0 l/m 0,0 km/h (0 Bft) NO 43 0 min 0,000 mm 0,0 UV-I 0 W/m 15,3 C 18,4 C 0,0 km/h (0 Bft) 0,00 %
15.07.2015 01:00 18,5 C 82 % 1017,0 hPa 0,0 l/m 0,0 km/h (0 Bft) NO 44 0 min 0,000 mm 0,0 UV-I 0 W/m 15,4 C 18,5 C 0,0 km/h (0 Bft) 0,00 %
15.07.2015 01:05 18,4 C 82 % 1017,0 hPa 0,0 l/m 0,0 km/h (0 Bft) NO 47 0 min 0,000 mm 0,0 UV-I 0 W/m 15,3 C 18,4 C 0,0 km/h (0 Bft) 0,00 %
15.07.2015 01:10 18,4 C 82 % 1017,0 hPa 0,0 l/m 0,0 km/h (0 Bft) NO 48 0 min 0,000 mm 0,0 UV-I 0 W/m 15,3 C 18,4 C 0,0 km/h (0 Bft) 0,00 %
15.07.2015 01:15 18,4 C 82 % 1017,0 hPa 0,0 l/m 0,0 km/h (0 Bft) NO 36 0 min 0,000 mm 0,0 UV-I 0 W/m 15,3 C 18,4 C 0,0 km/h (0 Bft) 0,00 %
15.07.2015 01:20 18,4 C 82 % 1017,0 hPa 0,0 l/m 0,0 km/h (0 Bft) NO 43 0 min 0,000 mm 0,0 UV-I 0 W/m 15,3 C 18,4 C 0,0 km/h (0 Bft) 0,00 %
15.07.2015 01:25 18,3 C 82 % 1017,0 hPa 0,0 l/m 0,0 km/h (0 Bft) NO 47 0 min 0,000 mm 0,0 UV-I 0 W/m 15,2 C 18,3 C 0,0 km/h (0 Bft) 0,00 %
15.07.2015 01:30 18,3 C 82 % 1016,9 hPa 0,0 l/m 0,0 km/h (0 Bft) NO 42 0 min 0,000 mm 0,0 UV-I 0 W/m 15,2 C 18,3 C 0,0 km/h (0 Bft) 0,00 %
15.07.2015 01:35 18,2 C 82 % 1016,9 hPa 0,0 l/m 0,0 km/h (0 Bft) NO 45 0 min 0,000 mm 0,0 UV-I 0 W/m 15,1 C 18,2 C 0,0 km/h (0 Bft) 0,00 %
15.07.2015 01:40 18,2 C 82 % 1016,9 hPa 0,0 l/m 0,0 km/h (0 Bft) NO 38 0 min 0,000 mm 0,0 UV-I 0 W/m 15,1 C 18,2 C 0,0 km/h (0 Bft) 0,00 %
15.07.2015 01:45 18,2 C 82 % 1017,1 hPa 0,0 l/m 0,0 km/h (0 Bft) NO 41 0 min 0,000 mm 0,0 UV-I 0 W/m 15,1 C 18,2 C 0,0 km/h (0 Bft) 0,00 %
15.07.2015 01:50 18,2 C 82 % 1016,9 hPa 0,0 l/m 0,0 km/h (0 Bft) NO 46 0 min 0,000 mm 0,0 UV-I 0 W/m 15,1 C 18,2 C 0,0 km/h (0 Bft) 0,00 %
15.07.2015 01:55 18,2 C 82 % 1016,9 hPa 0,0 l/m 0,0 km/h (0 Bft) NO 50 0 min 0,000 mm 0,0 UV-I 0 W/m 15,1 C 18,2 C 0,0 km/h (0 Bft) 0,00 %
15.07.2015 02:00 18,2 C 82 % 1017,1 hPa 0,0 l/m 0,0 km/h (0 Bft) NO 38 0 min 0,000 mm 0,0 UV-I 0 W/m 15,1 C 18,2 C 0,0 km/h (0 Bft) 0,00 %
15.07.2015 02:05 18,2 C 82 % 1017,1 hPa 0,0 l/m 0,0 km/h (0 Bft) NO 36 0 min 0,000 mm 0,0 UV-I 0 W/m 15,1 C 18,2 C 0,0 km/h (0 Bft) 0,00 %
15.07.2015 02:10 18,1 C 83 % 1017,1 hPa 0,0 l/m 0,0 km/h (0 Bft) NO 48 0 min 0,000 mm 0,0 UV-I 0 W/m 15,2 C 18,1 C 0,0 km/h (0 Bft) 0,00 %
15.07.2015 02:15 18,1 C 83 % 1016,9 hPa 0,0 l/m 0,0 km/h (0 Bft) NO 48 0 min 0,000 mm 0,0 UV-I 0 W/m 15,2 C 18,1 C 0,0 km/h (0 Bft) 0,00 %
15.07.2015 02:20 18,0 C 83 % 1017,0 hPa 0,0 l/m 0,0 km/h (0 Bft) N-NO 32 0 min 0,000 mm 0,0 UV-I 0 W/m 15,1 C 18,0 C 0,0 km/h (0 Bft) 0,00 %
15.07.2015 02:25 17,9 C 84 % 1017,1 hPa 0,0 l/m 0,0 km/h (0 Bft) NO 37 0 min 0,000 mm 0,0 UV-I 0 W/m 15,2 C 17,9 C 0,0 km/h (0 Bft) 0,00 %
15.07.2015 02:30 17,8 C 85 % 1017,1 hPa 0,0 l/m 0,0 km/h (0 Bft) NO 43 0 min 0,000 mm 0,0 UV-I 0 W/m 15,2 C 17,8 C 0,0 km/h (0 Bft) 0,00 %
15.07.2015 02:35 17,8 C 85 % 1017,1 hPa 0,0 l/m 0,0 km/h (0 Bft) NO 48 0 min 0,000 mm 0,0 UV-I 0 W/m 15,2 C 17,8 C 0,0 km/h (0 Bft) 0,00 %
15.07.2015 02:40 17,8 C 84 % 1017,1 hPa 0,0 l/m 0,0 km/h (0 Bft) NO 39 0 min 0,000 mm 0,0 UV-I 0 W/m 15,1 C 17,8 C 0,0 km/h (0 Bft) 0,00 %
15.07.2015 02:45 17,8 C 83 % 1017,0 hPa 0,0 l/m 0,0 km/h (0 Bft) NW 318 0 min 0,000 mm 0,0 UV-I 0 W/m 14,9 C 17,8 C 0,0 km/h (0 Bft) 0,00 %
15.07.2015 02:50 17,9 C 83 % 1017,0 hPa 0,0 l/m 0,4 km/h (0 Bft) N-NW 337 0 min 0,000 mm 0,0 UV-I 0 W/m 15,0 C 17,9 C 4,0 km/h (1 Bft) 0,00 %
15.07.2015 02:55 18,0 C 83 % 1016,8 hPa 0,0 l/m 0,4 km/h (0 Bft) N-NO 30 0 min 0,000 mm 0,0 UV-I 0 W/m 15,1 C 18,0 C 4,0 km/h (1 Bft) 0,00 %
15.07.2015 03:00 18,0 C 82 % 1016,9 hPa 0,0 l/m 0,0 km/h (0 Bft) N-NO 28 0 min 0,000 mm 0,0 UV-I 0 W/m 14,9 C 18,0 C 0,0 km/h (0 Bft) 0,00 %
15.07.2015 03:05 18,0 C 82 % 1016,9 hPa 0,0 l/m 0,0 km/h (0 Bft) NO 53 0 min 0,000 mm 0,0 UV-I 0 W/m 14,9 C 18,0 C 0,0 km/h (0 Bft) 0,00 %
15.07.2015 03:10 18,0 C 83 % 1017,1 hPa 0,0 l/m 0,0 km/h (0 Bft) N-NO 14 0 min 0,000 mm 0,0 UV-I 0 W/m 15,1 C 18,0 C 0,0 km/h (0 Bft) 0,00 %
15.07.2015 03:15 17,9 C 84 % 1016,9 hPa 0,0 l/m 0,0 km/h (0 Bft) O-NO 58 0 min 0,000 mm 0,0 UV-I 0 W/m 15,2 C 17,9 C 0,0 km/h (0 Bft) 0,00 %
15.07.2015 03:20 17,8 C 83 % 1017,0 hPa 0,0 l/m 0,0 km/h (0 Bft) N-NO 17 0 min 0,000 mm 0,0 UV-I 0 W/m 14,9 C 17,8 C 0,0 km/h (0 Bft) 0,00 %
15.07.2015 03:25 17,9 C 83 % 1017,0 hPa 0,0 l/m 2,2 km/h (1 Bft) SW 218 0 min 0,000 mm 0,0 UV-I 0 W/m 15,0 C 17,9 C 4,0 km/h (1 Bft) 0,00 %
15.07.2015 03:30 18,1 C 83 % 1016,9 hPa 0,0 l/m 0,4 km/h (0 Bft) N 353 0 min 0,000 mm 0,0 UV-I 0 W/m 15,2 C 18,1 C 4,0 km/h (1 Bft) 0,00 %
15.07.2015 03:35 18,2 C 82 % 1017,2 hPa 0,0 l/m 0,4 km/h (0 Bft) N-NO 19 0 min 0,000 mm 0,0 UV-I 0 W/m 15,1 C 18,2 C 4,0 km/h (1 Bft) 0,00 %
15.07.2015 03:40 18,2 C 82 % 1016,9 hPa 0,0 l/m 0,7 km/h (0 Bft) O-NO 77 0 min 0,000 mm 0,0 UV-I 0 W/m 15,1 C 18,2 C 4,0 km/h (1 Bft) 0,00 %
15.07.2015 03:45 18,2 C 82 % 1016,9 hPa 0,0 l/m 0,0 km/h (0 Bft) N 355 0 min 0,000 mm 0,0 UV-I 0 W/m 15,1 C 18,2 C 0,0 km/h (0 Bft) 0,00 %
15.07.2015 03:50 18,2 C 83 % 1016,9 hPa 0,0 l/m 0,0 km/h (0 Bft) N-NO 29 0 min 0,000 mm 0,0 UV-I 0 W/m 15,3 C 18,2 C 0,0 km/h (0 Bft) 0,00 %
15.07.2015 03:55 18,1 C 83 % 1017,1 hPa 0,0 l/m 0,0 km/h (0 Bft) N-NO 29 0 min 0,000 mm 0,0 UV-I 0 W/m 15,2 C 18,1 C 0,0 km/h (0 Bft) 0,00 %
15.07.2015 04:00 18,0 C 83 % 1017,0 hPa 0,0 l/m 0,0 km/h (0 Bft) NW 326 0 min 0,000 mm 0,0 UV-I 0 W/m 15,1 C 18,0 C 0,0 km/h (0 Bft) 0,00 %
15.07.2015 04:05 18,0 C 83 % 1017,2 hPa 0,0 l/m 0,0 km/h (0 Bft) O 90 0 min 0,000 mm 0,0 UV-I 0 W/m 15,1 C 18,0 C 0,0 km/h (0 Bft) 0,00 %
15.07.2015 04:10 17,9 C 84 % 1017,0 hPa 0,0 l/m 0,0 km/h (0 Bft) N 359 0 min 0,000 mm 0,0 UV-I 0 W/m 15,2 C 17,9 C 0,0 km/h (0 Bft) 0,00 %
15.07.2015 04:15 17,8 C 84 % 1017,0 hPa 0,0 l/m 0,0 km/h (0 Bft) NO 37 0 min 0,000 mm 0,0 UV-I 0 W/m 15,1 C 17,8 C 0,0 km/h (0 Bft) 0,00 %
15.07.2015 04:20 17,8 C 84 % 1017,1 hPa 0,0 l/m 0,4 km/h (0 Bft) NW 318 0 min 0,000 mm 0,0 UV-I 0 W/m 15,1 C 17,8 C 4,0 km/h (1 Bft) 0,00 %
15.07.2015 04:25 17,8 C 84 % 1017,2 hPa 0,0 l/m 0,0 km/h (0 Bft) N 355 0 min 0,000 mm 0,0 UV-I 0 W/m 15,1 C 17,8 C 0,0 km/h (0 Bft) 0,00 %
15.07.2015 04:30 17,8 C 84 % 1017,4 hPa 0,0 l/m 0,7 km/h (0 Bft) N-NW 331 0 min 0,000 mm 0,0 UV-I 0 W/m 15,1 C 17,8 C 4,0 km/h (1 Bft) 0,00 %
15.07.2015 04:35 17,8 C 85 % 1017,2 hPa 0,0 l/m 0,0 km/h (0 Bft) N-NO 25 0 min 0,000 mm 0,0 UV-I 0 W/m 15,2 C 17,8 C 0,0 km/h (0 Bft) 0,00 %
15.07.2015 04:40 17,8 C 85 % 1017,2 hPa 0,0 l/m 0,0 km/h (0 Bft) N-NW 348 0 min 0,000 mm 0,0 UV-I 0 W/m 15,2 C 17,8 C 0,0 km/h (0 Bft) 0,00 %
15.07.2015 04:45 17,8 C 85 % 1017,5 hPa 0,0 l/m 1,4 km/h (1 Bft) W-SW 256 0 min 0,000 mm 0,0 UV-I 0 W/m 15,2 C 17,8 C 4,0 km/h (1 Bft) 0,00 %
15.07.2015 04:50 17,8 C 84 % 1017,6 hPa 0,0 l/m 6,8 km/h (2 Bft) W-NW 288 0 min 0,000 mm 0,0 UV-I 0 W/m 15,1 C 17,6 C 11,9 km/h (2 Bft) 0,00 %
15.07.2015 04:55 17,9 C 83 % 1017,5 hPa 0,0 l/m 0,0 km/h (0 Bft) N-NO 25 0 min 0,000 mm 0,0 UV-I 0 W/m 15,0 C 17,9 C 0,0 km/h (0 Bft) 0,00 %
15.07.2015 05:00 18,0 C 83 % 1017,6 hPa 0,0 l/m 0,4 km/h (0 Bft) NO 34 0 min 0,000 mm 0,0 UV-I 0 W/m 15,1 C 18,0 C 4,0 km/h (1 Bft) 0,00 %
15.07.2015 05:05 18,1 C 83 % 1017,6 hPa 0,0 l/m 0,7 km/h (0 Bft) NW 321 0 min 0,000 mm 0,0 UV-I 0 W/m 15,2 C 18,1 C 4,0 km/h (1 Bft) 0,00 %
15.07.2015 05:10 18,1 C 82 % 1017,6 hPa 0,0 l/m 4,3 km/h (1 Bft) W-SW 256 0 min 0,000 mm 0,0 UV-I 0 W/m 15,0 C 18,1 C 7,9 km/h (2 Bft) 0,00 %
15.07.2015 05:15 18,1 C 82 % 1017,8 hPa 0,0 l/m 0,0 km/h (0 Bft) N-NO 29 0 min 0,000 mm 0,0 UV-I 0 W/m 15,0 C 18,1 C 0,0 km/h (0 Bft) 0,00 %
15.07.2015 05:20 18,0 C 83 % 1017,9 hPa 0,0 l/m 0,0 km/h (0 Bft) NO 47 0 min 0,000 mm 0,0 UV-I 0 W/m 15,1 C 18,0 C 0,0 km/h (0 Bft) 0,00 %
15.07.2015 05:25 18,0 C 83 % 1017,8 hPa 0,0 l/m 0,0 km/h (0 Bft) N 357 0 min 0,000 mm 0,0 UV-I 0 W/m 15,1 C 18,0 C 0,0 km/h (0 Bft) 0,00 %
15.07.2015 05:30 17,9 C 84 % 1017,9 hPa 0,0 l/m 0,0 km/h (0 Bft) W-NW 301 0 min 0,000 mm 0,0 UV-I 0 W/m 15,2 C 17,9 C 0,0 km/h (0 Bft) 0,00 %
15.07.2015 05:35 17,8 C 84 % 1017,7 hPa 0,0 l/m 0,0 km/h (0 Bft) N 350 0 min 0,000 mm 0,0 UV-I 3 W/m 15,1 C 17,8 C 0,0 km/h (0 Bft) 0,00 %
15.07.2015 05:40 17,8 C 84 % 1018,2 hPa 0,0 l/m 0,0 km/h (0 Bft) N 349 0 min 0,000 mm 0,0 UV-I 6 W/m 15,1 C 17,8 C 0,0 km/h (0 Bft) 0,00 %
15.07.2015 05:45 17,7 C 85 % 1018,3 hPa 0,0 l/m 0,0 km/h (0 Bft) N 350 0 min 0,000 mm 0,0 UV-I 9 W/m 15,1 C 17,7 C 0,0 km/h (0 Bft) 0,00 %
15.07.2015 05:50 17,7 C 85 % 1018,3 hPa 0,0 l/m 0,4 km/h (0 Bft) N 352 0 min 0,000 mm 0,0 UV-I 16 W/m 15,1 C 17,7 C 4,0 km/h (1 Bft) 0,00 %
15.07.2015 05:55 17,7 C 85 % 1018,2 hPa 0,0 l/m 0,0 km/h (0 Bft) NO 35 0 min 0,000 mm 0,0 UV-I 8 W/m 15,1 C 17,7 C 0,0 km/h (0 Bft) 0,00 %
15.07.2015 06:00 17,7 C 85 % 1018,3 hPa 0,0 l/m 0,0 km/h (0 Bft) NO 40 0 min 0,000 mm 0,0 UV-I 11 W/m 15,1 C 17,7 C 0,0 km/h (0 Bft) 0,00 %
15.07.2015 06:05 17,7 C 85 % 1018,2 hPa 0,0 l/m 0,0 km/h (0 Bft) NO 37 0 min 0,000 mm 0,0 UV-I 19 W/m 15,1 C 17,7 C 0,0 km/h (0 Bft) 0,00 %
15.07.2015 06:10 17,7 C 84 % 1018,2 hPa 0,0 l/m 0,0 km/h (0 Bft) N-NO 33 0 min 0,000 mm 0,0 UV-I 26 W/m 15,0 C 17,7 C 0,0 km/h (0 Bft) 0,00 %
15.07.2015 06:15 17,7 C 83 % 1018,3 hPa 0,0 l/m 0,0 km/h (0 Bft) NO 50 0 min 0,000 mm 0,0 UV-I 27 W/m 14,8 C 17,7 C 0,0 km/h (0 Bft) 0,00 %
15.07.2015 06:20 17,7 C 83 % 1018,3 hPa 0,0 l/m 0,0 km/h (0 Bft) N-NW 346 0 min 0,000 mm 0,0 UV-I 33 W/m 14,8 C 17,7 C 0,0 km/h (0 Bft) 0,00 %
15.07.2015 06:25 17,7 C 83 % 1018,2 hPa 0,0 l/m 0,0 km/h (0 Bft) NO 55 0 min 0,000 mm 0,0 UV-I 31 W/m 14,8 C 17,7 C 0,0 km/h (0 Bft) 0,00 %
15.07.2015 06:30 17,8 C 84 % 1018,5 hPa 0,0 l/m 0,0 km/h (0 Bft) NO 36 0 min 0,000 mm 0,0 UV-I 41 W/m 15,1 C 17,8 C 0,0 km/h (0 Bft) 0,00 %
15.07.2015 06:35 17,8 C 84 % 1018,3 hPa 0,0 l/m 0,0 km/h (0 Bft) N 353 0 min 0,000 mm 0,0 UV-I 44 W/m 15,1 C 17,8 C 0,0 km/h (0 Bft) 0,00 %
15.07.2015 06:40 17,8 C 82 % 1018,3 hPa 0,0 l/m 0,0 km/h (0 Bft) NO 52 0 min 0,000 mm 0,0 UV-I 58 W/m 14,7 C 17,8 C 0,0 km/h (0 Bft) 0,00 %
15.07.2015 06:45 18,0 C 82 % 1018,1 hPa 0,0 l/m 0,0 km/h (0 Bft) NO 45 0 min 0,000 mm 0,0 UV-I 84 W/m 14,9 C 18,0 C 0,0 km/h (0 Bft) 0,00 %
15.07.2015 06:50 18,2 C 82 % 1018,5 hPa 0,0 l/m 0,0 km/h (0 Bft) NO 37 0 min 0,000 mm 0,0 UV-I 74 W/m 15,1 C 18,2 C 0,0 km/h (0 Bft) 0,00 %
15.07.2015 06:55 18,4 C 82 % 1018,4 hPa 0,0 l/m 0,0 km/h (0 Bft) N 356 0 min 0,000 mm 0,0 UV-I 64 W/m 15,3 C 18,4 C 0,0 km/h (0 Bft) 0,00 %
15.07.2015 07:00 18,5 C 82 % 1018,4 hPa 0,0 l/m 0,0 km/h (0 Bft) N 356 0 min 0,000 mm 0,0 UV-I 69 W/m 15,4 C 18,5 C 0,0 km/h (0 Bft) 0,00 %
15.07.2015 07:05 18,6 C 81 % 1018,5 hPa 0,0 l/m 0,0 km/h (0 Bft) NO 38 0 min 0,000 mm 1,0 UV-I 83 W/m 15,3 C 18,6 C 0,0 km/h (0 Bft) 0,00 %
15.07.2015 07:10 18,7 C 81 % 1018,6 hPa 0,0 l/m 0,0 km/h (0 Bft) NO 43 0 min 0,000 mm 1,0 UV-I 114 W/m 15,4 C 18,7 C 0,0 km/h (0 Bft) 0,00 %
15.07.2015 07:15 18,9 C 80 % 1018,4 hPa 0,0 l/m 0,0 km/h (0 Bft) NO 43 0 min 0,000 mm 1,0 UV-I 123 W/m 15,4 C 18,9 C 0,0 km/h (0 Bft) 0,00 %
15.07.2015 07:20 19,0 C 79 % 1018,6 hPa 0,0 l/m 0,0 km/h (0 Bft) NO 37 0 min 0,000 mm 1,0 UV-I 162 W/m 15,3 C 19,0 C 0,0 km/h (0 Bft) 0,00 %
15.07.2015 07:25 19,1 C 78 % 1018,7 hPa 0,0 l/m 0,0 km/h (0 Bft) N-NO 28 0 min 0,000 mm 1,0 UV-I 136 W/m 15,2 C 19,1 C 0,0 km/h (0 Bft) 0,00 %
15.07.2015 07:30 19,2 C 78 % 1018,6 hPa 0,0 l/m 0,0 km/h (0 Bft) NO 56 0 min 0,000 mm 1,0 UV-I 151 W/m 15,3 C 19,2 C 0,0 km/h (0 Bft) 0,00 %
15.07.2015 07:35 19,3 C 77 % 1018,6 hPa 0,0 l/m 0,0 km/h (0 Bft) NO 52 5 min 0,000 mm 1,0 UV-I 189 W/m 15,2 C 19,3 C 0,0 km/h (0 Bft) 0,00 %
15.07.2015 07:40 19,5 C 75 % 1018,5 hPa 0,0 l/m 0,0 km/h (0 Bft) NO 54 0 min 0,000 mm 1,0 UV-I 187 W/m 14,9 C 19,5 C 0,0 km/h (0 Bft) 0,00 %
15.07.2015 07:45 19,7 C 75 % 1018,4 hPa 0,0 l/m 0,0 km/h (0 Bft) N-NO 27 5 min 0,000 mm 1,0 UV-I 220 W/m 15,1 C 19,7 C 0,0 km/h (0 Bft) 0,00 %
15.07.2015 07:50 19,8 C 73 % 1018,6 hPa 0,0 l/m 0,0 km/h (0 Bft) NO 40 5 min 0,000 mm 1,0 UV-I 248 W/m 14,8 C 19,8 C 0,0 km/h (0 Bft) 0,00 %
15.07.2015 07:55 20,1 C 72 % 1018,5 hPa 0,0 l/m 0,4 km/h (0 Bft) N 350 5 min 0,000 mm 1,0 UV-I 248 W/m 14,9 C 20,1 C 4,0 km/h (1 Bft) 0,00 %
15.07.2015 08:00 20,5 C 70 % 1018,4 hPa 0,0 l/m 1,4 km/h (1 Bft) N 355 5 min 0,000 mm 1,0 UV-I 284 W/m 14,8 C 20,5 C 4,0 km/h (1 Bft) 0,00 %
15.07.2015 08:05 20,7 C 69 % 1018,5 hPa 0,0 l/m 7,9 km/h (2 Bft) W-SW 256 0 min 0,000 mm 1,0 UV-I 205 W/m 14,8 C 20,1 C 7,9 km/h (2 Bft) 0,00 %
15.07.2015 08:10 20,7 C 69 % 1018,6 hPa 0,0 l/m 0,7 km/h (0 Bft) NO 50 0 min 0,000 mm 1,0 UV-I 228 W/m 14,8 C 20,7 C 4,0 km/h (1 Bft) 0,00 %
15.07.2015 08:15 20,6 C 69 % 1018,5 hPa 0,0 l/m 1,4 km/h (1 Bft) W 271 0 min 0,000 mm 1,0 UV-I 209 W/m 14,7 C 20,6 C 4,0 km/h (1 Bft) 0,00 %
15.07.2015 08:20 20,6 C 69 % 1018,6 hPa 0,0 l/m 4,0 km/h (1 Bft) W-SW 256 5 min 0,000 mm 1,0 UV-I 321 W/m 14,7 C 20,6 C 7,9 km/h (2 Bft) 0,00 %
15.07.2015 08:25 20,6 C 68 % 1018,6 hPa 0,0 l/m 0,7 km/h (0 Bft) N 356 5 min 0,000 mm 2,0 UV-I 310 W/m 14,5 C 20,6 C 4,0 km/h (1 Bft) 0,00 %
15.07.2015 08:30 21,0 C 66 % 1018,5 hPa 0,0 l/m 0,0 km/h (0 Bft) NO 46 5 min 0,000 mm 1,0 UV-I 469 W/m 14,4 C 21,0 C 0,0 km/h (0 Bft) 0,00 %
15.07.2015 08:35 21,4 C 65 % 1018,5 hPa 0,0 l/m 4,0 km/h (1 Bft) W-SW 242 5 min 0,000 mm 2,0 UV-I 506 W/m 14,5 C 21,4 C 7,9 km/h (2 Bft) 0,00 %
15.07.2015 08:40 21,7 C 62 % 1018,3 hPa 0,0 l/m 6,5 km/h (2 Bft) W 264 5 min 0,000 mm 2,0 UV-I 291 W/m 14,1 C 21,7 C 7,9 km/h (2 Bft) 0,00 %
15.07.2015 08:45 22,1 C 62 % 1018,4 hPa 0,0 l/m 0,7 km/h (0 Bft) NO 43 0 min 0,000 mm 2,0 UV-I 270 W/m 14,5 C 22,1 C 4,0 km/h (1 Bft) 0,00 %
15.07.2015 08:50 22,6 C 60 % 1018,4 hPa 0,0 l/m 4,7 km/h (1 Bft) W-NW 293 0 min 0,000 mm 2,0 UV-I 287 W/m 14,4 C 22,6 C 7,9 km/h (2 Bft) 0,00 %
15.07.2015 08:55 23,0 C 57 % 1018,4 hPa 0,0 l/m 4,0 km/h (1 Bft) W 274 0 min 0,000 mm 1,0 UV-I 260 W/m 14,0 C 23,0 C 7,9 km/h (2 Bft) 0,00 %
15.07.2015 09:00 22,8 C 61 % 1018,5 hPa 0,0 l/m 1,8 km/h (1 Bft) N-NO 25 5 min 0,000 mm 1,0 UV-I 322 W/m 14,9 C 22,8 C 4,0 km/h (1 Bft) 0,00 %
15.07.2015 09:05 22,5 C 63 % 1018,5 hPa 0,0 l/m 0,0 km/h (0 Bft) NO 52 5 min 0,000 mm 1,0 UV-I 334 W/m 15,1 C 22,5 C 0,0 km/h (0 Bft) 0,00 %
15.07.2015 09:10 22,1 C 63 % 1018,6 hPa 0,0 l/m 4,7 km/h (1 Bft) N-NW 342 5 min 0,000 mm 2,0 UV-I 324 W/m 14,7 C 22,1 C 7,9 km/h (2 Bft) 0,00 %
15.07.2015 09:15 21,9 C 63 % 1018,6 hPa 0,0 l/m 3,2 km/h (1 Bft) NO 42 5 min 0,000 mm 2,0 UV-I 340 W/m 14,5 C 21,9 C 7,9 km/h (2 Bft) 0,00 %
15.07.2015 09:20 21,9 C 63 % 1018,6 hPa 0,0 l/m 5,8 km/h (2 Bft) SW 231 0 min 0,000 mm 2,0 UV-I 262 W/m 14,5 C 21,9 C 7,9 km/h (2 Bft) 0,00 %
15.07.2015 09:25 22,0 C 63 % 1018,7 hPa 0,0 l/m 0,0 km/h (0 Bft) N 352 0 min 0,000 mm 2,0 UV-I 314 W/m 14,6 C 22,0 C 0,0 km/h (0 Bft) 0,00 %
15.07.2015 09:30 22,2 C 63 % 1018,5 hPa 0,0 l/m 1,8 km/h (1 Bft) N-NO 24 0 min 0,000 mm 1,0 UV-I 276 W/m 14,8 C 22,2 C 4,0 km/h (1 Bft) 0,00 %
15.07.2015 09:35 22,3 C 59 % 1018,5 hPa 0,0 l/m 1,8 km/h (1 Bft) N-NW 336 5 min 0,000 mm 1,0 UV-I 357 W/m 13,9 C 22,3 C 4,0 km/h (1 Bft) 0,00 %
15.07.2015 09:40 22,2 C 61 % 1018,5 hPa 0,0 l/m 5,4 km/h (1 Bft) S-SO 151 0 min 0,000 mm 2,0 UV-I 303 W/m 14,3 C 22,2 C 7,9 km/h (2 Bft) 0,00 %
15.07.2015 09:45 22,0 C 61 % 1018,6 hPa 0,0 l/m 0,0 km/h (0 Bft) NO 36 5 min 0,000 mm 1,0 UV-I 646 W/m 14,1 C 22,0 C 0,0 km/h (0 Bft) 0,00 %
15.07.2015 09:50 22,1 C 61 % 1018,7 hPa 0,0 l/m 0,0 km/h (0 Bft) NO 42 5 min 0,000 mm 2,0 UV-I 483 W/m 14,2 C 22,1 C 0,0 km/h (0 Bft) 0,00 %
15.07.2015 09:55 22,6 C 58 % 1018,4 hPa 0,0 l/m 0,0 km/h (0 Bft) NW 326 0 min 0,000 mm 2,0 UV-I 340 W/m 13,9 C 22,6 C 0,0 km/h (0 Bft) 0,00 %
15.07.2015 10:00 22,9 C 59 % 1018,4 hPa 0,0 l/m 0,4 km/h (0 Bft) N-NO 22 5 min 0,000 mm 3,0 UV-I 664 W/m 14,5 C 22,9 C 4,0 km/h (1 Bft) 0,00 %
15.07.2015 10:05 23,2 C 56 % 1018,4 hPa 0,0 l/m 0,4 km/h (0 Bft) N-NO 30 5 min 0,000 mm 2,0 UV-I 759 W/m 13,9 C 23,2 C 4,0 km/h (1 Bft) 0,00 %
15.07.2015 10:10 23,6 C 57 % 1018,3 hPa 0,0 l/m 9,0 km/h (2 Bft) W-SW 253 5 min 0,000 mm 2,0 UV-I 586 W/m 14,6 C 22,9 C 11,9 km/h (2 Bft) 0,00 %
15.07.2015 10:15 23,6 C 56 % 1018,3 hPa 0,0 l/m 1,8 km/h (1 Bft) W-SW 256 5 min 0,000 mm 3,0 UV-I 753 W/m 14,3 C 23,6 C 4,0 km/h (1 Bft) 0,00 %
15.07.2015 10:20 23,7 C 55 % 1018,2 hPa 0,0 l/m 4,7 km/h (1 Bft) NW 319 0 min 0,000 mm 3,0 UV-I 293 W/m 14,1 C 23,7 C 7,9 km/h (2 Bft) 0,00 %
15.07.2015 10:25 24,3 C 53 % 1018,2 hPa 0,0 l/m 6,5 km/h (2 Bft) W-SW 247 5 min 0,000 mm 2,0 UV-I 697 W/m 14,1 C 24,3 C 7,9 km/h (2 Bft) 0,00 %
15.07.2015 10:30 24,7 C 53 % 1018,3 hPa 0,0 l/m 9,7 km/h (2 Bft) NW 311 5 min 0,000 mm 4,0 UV-I 723 W/m 14,5 C 23,9 C 15,8 km/h (3 Bft) 0,00 %
15.07.2015 10:35 24,6 C 53 % 1018,3 hPa 0,0 l/m 7,2 km/h (2 Bft) W-NW 302 5 min 0,000 mm 2,0 UV-I 743 W/m 14,4 C 24,4 C 11,9 km/h (2 Bft) 0,00 %
15.07.2015 10:40 24,3 C 52 % 1018,2 hPa 0,0 l/m 2,2 km/h (1 Bft) NW 309 5 min 0,000 mm 4,0 UV-I 743 W/m 13,8 C 24,3 C 4,0 km/h (1 Bft) 0,00 %
15.07.2015 10:45 24,3 C 52 % 1018,3 hPa 0,0 l/m 11,9 km/h (2 Bft) NW 307 5 min 0,000 mm 4,0 UV-I 714 W/m 13,8 C 23,0 C 15,8 km/h (3 Bft) 0,00 %
15.07.2015 10:50 24,4 C 55 % 1018,3 hPa 0,0 l/m 0,4 km/h (0 Bft) N 351 5 min 0,000 mm 4,0 UV-I 784 W/m 14,8 C 24,4 C 4,0 km/h (1 Bft) 0,00 %
15.07.2015 10:55 24,5 C 51 % 1018,3 hPa 0,0 l/m 0,7 km/h (0 Bft) N-NO 30 5 min 0,000 mm 4,0 UV-I 857 W/m 13,7 C 24,5 C 4,0 km/h (1 Bft) 0,00 %
15.07.2015 11:00 25,0 C 50 % 1018,1 hPa 0,0 l/m 1,4 km/h (1 Bft) N 352 0 min 0,000 mm 4,0 UV-I 348 W/m 13,8 C 25,0 C 4,0 km/h (1 Bft) 0,00 %
15.07.2015 11:05 25,5 C 46 % 1018,1 hPa 0,0 l/m 4,3 km/h (1 Bft) NW 318 5 min 0,000 mm 4,0 UV-I 855 W/m 13,0 C 25,5 C 7,9 km/h (2 Bft) 0,00 %
15.07.2015 11:10 25,9 C 49 % 1017,9 hPa 0,0 l/m 8,3 km/h (2 Bft) W 278 0 min 0,000 mm 4,0 UV-I 395 W/m 14,4 C 25,5 C 11,9 km/h (2 Bft) 0,00 %
15.07.2015 11:15 26,0 C 46 % 1017,8 hPa 0,0 l/m 0,4 km/h (0 Bft) N-NO 23 5 min 0,000 mm 2,0 UV-I 835 W/m 13,5 C 26,0 C 4,0 km/h (1 Bft) 0,00 %
15.07.2015 11:20 25,7 C 49 % 1018,1 hPa 0,0 l/m 4,7 km/h (1 Bft) W-NW 285 5 min 0,000 mm 5,0 UV-I 941 W/m 14,2 C 25,7 C 7,9 km/h (2 Bft) 0,00 %
15.07.2015 11:25 25,4 C 47 % 1018,2 hPa 0,0 l/m 1,8 km/h (1 Bft) SW 214 0 min 0,000 mm 3,0 UV-I 306 W/m 13,3 C 25,4 C 4,0 km/h (1 Bft) 0,00 %
15.07.2015 11:30 25,6 C 46 % 1017,9 hPa 0,0 l/m 0,4 km/h (0 Bft) NO 50 0 min 0,000 mm 5,0 UV-I 360 W/m 13,1 C 25,6 C 4,0 km/h (1 Bft) 0,00 %
15.07.2015 11:35 25,9 C 45 % 1017,8 hPa 0,0 l/m 0,0 km/h (0 Bft) O-NO 64 5 min 0,000 mm 5,0 UV-I 942 W/m 13,0 C 25,9 C 0,0 km/h (0 Bft) 0,00 %
15.07.2015 11:40 26,4 C 42 % 1018,1 hPa 0,0 l/m 3,2 km/h (1 Bft) N-NW 345 0 min 0,000 mm 2,0 UV-I 375 W/m 12,4 C 26,4 C 4,0 km/h (1 Bft) 0,00 %
15.07.2015 11:45 26,4 C 45 % 1017,7 hPa 0,0 l/m 0,0 km/h (0 Bft) O-NO 73 0 min 0,000 mm 2,0 UV-I 342 W/m 13,5 C 26,4 C 0,0 km/h (0 Bft) 0,00 %
15.07.2015 11:50 25,9 C 47 % 1017,8 hPa 0,0 l/m 0,0 km/h (0 Bft) N 349 5 min 0,000 mm 5,0 UV-I 911 W/m 13,7 C 25,9 C 0,0 km/h (0 Bft) 0,00 %
15.07.2015 11:55 26,0 C 45 % 1017,9 hPa 0,0 l/m 6,8 km/h (2 Bft) SW 228 0 min 0,000 mm 2,0 UV-I 323 W/m 13,1 C 25,9 C 7,9 km/h (2 Bft) 0,00 %
15.07.2015 12:00 25,8 C 50 % 1017,8 hPa 0,0 l/m 0,0 km/h (0 Bft) NW 315 0 min 0,000 mm 2,0 UV-I 394 W/m 14,6 C 25,8 C 0,0 km/h (0 Bft) 0,00 %
15.07.2015 12:05 25,5 C 45 % 1017,9 hPa 0,0 l/m 0,4 km/h (0 Bft) N 7 5 min 0,000 mm 4,0 UV-I 490 W/m 12,7 C 25,5 C 4,0 km/h (1 Bft) 0,00 %
15.07.2015 12:10 25,5 C 47 % 1017,8 hPa 0,0 l/m 0,0 km/h (0 Bft) W-NW 283 5 min 0,000 mm 2,0 UV-I 951 W/m 13,3 C 25,5 C 0,0 km/h (0 Bft) 0,00 %
15.07.2015 12:15 25,6 C 48 % 1017,8 hPa 0,0 l/m 2,9 km/h (1 Bft) W 274 5 min 0,000 mm 5,0 UV-I 961 W/m 13,8 C 25,6 C 4,0 km/h (1 Bft) 0,00 %
15.07.2015 12:20 25,8 C 45 % 1017,7 hPa 0,0 l/m 9,4 km/h (2 Bft) W 276 5 min 0,000 mm 4,0 UV-I 988 W/m 13,0 C 25,2 C 11,9 km/h (2 Bft) 0,00 %
15.07.2015 12:25 26,0 C 45 % 1017,8 hPa 0,0 l/m 0,0 km/h (0 Bft) N 349 5 min 0,000 mm 3,0 UV-I 965 W/m 13,1 C 26,0 C 0,0 km/h (0 Bft) 0,00 %
15.07.2015 12:30 26,1 C 48 % 1017,8 hPa 0,0 l/m 2,9 km/h (1 Bft) N-NW 336 5 min 0,000 mm 6,0 UV-I 770 W/m 14,2 C 26,1 C 4,0 km/h (1 Bft) 0,00 %
15.07.2015 12:35 26,4 C 42 % 1017,7 hPa 0,0 l/m 8,3 km/h (2 Bft) W-NW 303 0 min 0,000 mm 6,0 UV-I 347 W/m 12,4 C 26,0 C 11,9 km/h (2 Bft) 0,00 %
15.07.2015 12:40 26,7 C 43 % 1017,5 hPa 0,0 l/m 1,8 km/h (1 Bft) N-NW 339 0 min 0,000 mm 6,0 UV-I 261 W/m 13,1 C 26,7 C 4,0 km/h (1 Bft) 0,00 %
15.07.2015 12:45 26,8 C 45 % 1017,5 hPa 0,0 l/m 1,8 km/h (1 Bft) W-NW 290 5 min 0,000 mm 6,0 UV-I 965 W/m 13,9 C 26,8 C 4,0 km/h (1 Bft) 0,00 %
15.07.2015 12:50 26,7 C 43 % 1017,4 hPa 0,0 l/m 2,2 km/h (1 Bft) NO 50 0 min 0,000 mm 5,0 UV-I 372 W/m 13,1 C 26,7 C 4,0 km/h (1 Bft) 0,00 %
15.07.2015 12:55 26,4 C 48 % 1017,5 hPa 0,0 l/m 0,0 km/h (0 Bft) NO 44 0 min 0,000 mm 1,0 UV-I 359 W/m 14,5 C 26,4 C 0,0 km/h (0 Bft) 0,00 %
15.07.2015 13:00 25,8 C 47 % 1017,5 hPa 0,0 l/m 0,7 km/h (0 Bft) N-NO 32 5 min 0,000 mm 6,0 UV-I 696 W/m 13,6 C 25,8 C 4,0 km/h (1 Bft) 0,00 %
15.07.2015 13:05 25,6 C 47 % 1017,4 hPa 0,0 l/m 1,4 km/h (1 Bft) O-SO 120 0 min 0,000 mm 2,0 UV-I 398 W/m 13,4 C 25,6 C 4,0 km/h (1 Bft) 0,00 %
15.07.2015 13:10 25,8 C 46 % 1017,6 hPa 0,0 l/m 4,7 km/h (1 Bft) O 80 0 min 0,000 mm 4,0 UV-I 461 W/m 13,3 C 25,8 C 7,9 km/h (2 Bft) 0,00 %
15.07.2015 13:15 25,9 C 49 % 1017,6 hPa 0,0 l/m 0,0 km/h (0 Bft) O 79 0 min 0,000 mm 4,0 UV-I 474 W/m 14,4 C 25,9 C 0,0 km/h (0 Bft) 0,00 %
15.07.2015 13:20 25,9 C 48 % 1017,5 hPa 0,0 l/m 2,2 km/h (1 Bft) N-NW 331 0 min 0,000 mm 3,0 UV-I 373 W/m 14,0 C 25,9 C 4,0 km/h (1 Bft) 0,00 %
15.07.2015 13:25 26,1 C 46 % 1017,2 hPa 0,0 l/m 9,4 km/h (2 Bft) W-NW 299 0 min 0,000 mm 3,0 UV-I 405 W/m 13,6 C 25,5 C 11,9 km/h (2 Bft) 0,00 %
15.07.2015 13:30 26,1 C 44 % 1017,1 hPa 0,0 l/m 0,0 km/h (0 Bft) NO 47 5 min 0,000 mm 4,0 UV-I 1080 W/m 12,9 C 26,1 C 0,0 km/h (0 Bft) 0,00 %
15.07.2015 13:35 26,0 C 47 % 1017,3 hPa 0,0 l/m 0,7 km/h (0 Bft) N-NO 33 5 min 0,000 mm 2,0 UV-I 1053 W/m 13,8 C 26,0 C 4,0 km/h (1 Bft) 0,00 %
15.07.2015 13:40 26,0 C 45 % 1017,3 hPa 0,0 l/m 5,8 km/h (2 Bft) N 353 5 min 0,000 mm 4,0 UV-I 1031 W/m 13,1 C 26,0 C 7,9 km/h (2 Bft) 0,00 %
15.07.2015 13:45 26,3 C 45 % 1017,0 hPa 0,0 l/m 0,7 km/h (0 Bft) N-NW 340 5 min 0,000 mm 4,0 UV-I 1217 W/m 13,4 C 26,3 C 4,0 km/h (1 Bft) 0,00 %
15.07.2015 13:50 26,6 C 46 % 1017,1 hPa 0,0 l/m 7,2 km/h (2 Bft) N-NW 343 0 min 0,000 mm 5,0 UV-I 441 W/m 14,0 C 26,4 C 11,9 km/h (2 Bft) 0,00 %
15.07.2015 13:55 27,2 C 44 % 1017,0 hPa 0,0 l/m 2,9 km/h (1 Bft) NW 312 0 min 0,000 mm 5,0 UV-I 324 W/m 13,9 C 27,2 C 7,9 km/h (2 Bft) 0,00 %
15.07.2015 14:00 27,8 C 42 % 1016,8 hPa 0,0 l/m 0,7 km/h (0 Bft) W 272 5 min 0,000 mm 6,0 UV-I 1001 W/m 13,7 C 27,8 C 4,0 km/h (1 Bft) 0,00 %
15.07.2015 14:05 28,3 C 41 % 1016,7 hPa 0,0 l/m 0,0 km/h (0 Bft) NO 45 5 min 0,000 mm 3,0 UV-I 998 W/m 13,8 C 28,3 C 0,0 km/h (0 Bft) 0,00 %
15.07.2015 14:10 28,4 C 44 % 1016,7 hPa 0,0 l/m 0,7 km/h (0 Bft) N 9 5 min 0,000 mm 2,0 UV-I 1025 W/m 14,9 C 28,4 C 4,0 km/h (1 Bft) 0,00 %
15.07.2015 14:15 28,0 C 44 % 1016,7 hPa 0,0 l/m 0,0 km/h (0 Bft) W-NW 295 5 min 0,000 mm 2,0 UV-I 1028 W/m 14,6 C 28,0 C 0,0 km/h (0 Bft) 0,00 %
15.07.2015 14:20 27,5 C 46 % 1016,6 hPa 0,0 l/m 0,0 km/h (0 Bft) NO 47 5 min 0,000 mm 5,0 UV-I 1034 W/m 14,8 C 27,5 C 0,0 km/h (0 Bft) 0,00 %
15.07.2015 14:25 27,4 C 44 % 1016,6 hPa 0,0 l/m 0,7 km/h (0 Bft) N 349 5 min 0,000 mm 5,0 UV-I 1090 W/m 14,0 C 27,4 C 4,0 km/h (1 Bft) 0,00 %
15.07.2015 14:30 27,6 C 44 % 1016,7 hPa 0,0 l/m 0,4 km/h (0 Bft) O-NO 62 5 min 0,000 mm 3,0 UV-I 1018 W/m 14,2 C 27,6 C 4,0 km/h (1 Bft) 0,00 %
15.07.2015 14:35 27,8 C 43 % 1016,7 hPa 0,0 l/m 0,0 km/h (0 Bft) NO 39 5 min 0,000 mm 4,0 UV-I 971 W/m 14,1 C 27,8 C 0,0 km/h (0 Bft) 0,00 %
15.07.2015 14:40 27,5 C 45 % 1016,6 hPa 0,0 l/m 6,8 km/h (2 Bft) NW 321 5 min 0,000 mm 4,0 UV-I 933 W/m 14,5 C 27,4 C 7,9 km/h (2 Bft) 0,00 %
15.07.2015 14:45 27,6 C 43 % 1016,4 hPa 0,0 l/m 4,0 km/h (1 Bft) N-NW 344 5 min 0,000 mm 3,0 UV-I 943 W/m 13,9 C 27,6 C 7,9 km/h (2 Bft) 0,00 %
15.07.2015 14:50 27,8 C 43 % 1016,5 hPa 0,0 l/m 0,0 km/h (0 Bft) NO 36 5 min 0,000 mm 5,0 UV-I 955 W/m 14,1 C 27,8 C 0,0 km/h (0 Bft) 0,00 %
15.07.2015 14:55 27,8 C 42 % 1016,5 hPa 0,0 l/m 2,9 km/h (1 Bft) N-NW 347 5 min 0,000 mm 5,0 UV-I 968 W/m 13,7 C 27,8 C 4,0 km/h (1 Bft) 0,00 %
15.07.2015 15:00 27,8 C 45 % 1016,5 hPa 0,0 l/m 3,2 km/h (1 Bft) W-SW 240 5 min 0,000 mm 4,0 UV-I 1004 W/m 14,8 C 27,8 C 4,0 km/h (1 Bft) 0,00 %
15.07.2015 15:05 27,8 C 42 % 1016,4 hPa 0,0 l/m 0,0 km/h (0 Bft) NW 317 5 min 0,000 mm 4,0 UV-I 912 W/m 13,7 C 27,8 C 0,0 km/h (0 Bft) 0,00 %
15.07.2015 15:10 27,8 C 42 % 1016,4 hPa 0,0 l/m 0,4 km/h (0 Bft) NO 38 5 min 0,000 mm 4,0 UV-I 960 W/m 13,7 C 27,8 C 4,0 km/h (1 Bft) 0,00 %
15.07.2015 15:15 27,9 C 43 % 1016,4 hPa 0,0 l/m 0,7 km/h (0 Bft) NO 37 0 min 0,000 mm 4,0 UV-I 278 W/m 14,1 C 27,9 C 4,0 km/h (1 Bft) 0,00 %
15.07.2015 15:20 28,0 C 42 % 1016,1 hPa 0,0 l/m 0,7 km/h (0 Bft) O-SO 109 5 min 0,000 mm 4,0 UV-I 548 W/m 13,9 C 28,0 C 4,0 km/h (1 Bft) 0,00 %
15.07.2015 15:25 28,2 C 42 % 1016,1 hPa 0,0 l/m 0,0 km/h (0 Bft) NO 36 5 min 0,000 mm 4,0 UV-I 965 W/m 14,0 C 28,2 C 0,0 km/h (0 Bft) 0,00 %
15.07.2015 15:30 28,3 C 41 % 1016,2 hPa 0,0 l/m 0,4 km/h (0 Bft) N 352 5 min 0,000 mm 4,0 UV-I 945 W/m 13,8 C 28,3 C 4,0 km/h (1 Bft) 0,00 %
15.07.2015 15:35 28,3 C 42 % 1016,1 hPa 0,0 l/m 0,0 km/h (0 Bft) NO 44 5 min 0,000 mm 4,0 UV-I 969 W/m 14,1 C 28,3 C 0,0 km/h (0 Bft) 0,00 %
15.07.2015 15:40 28,3 C 39 % 1015,9 hPa 0,0 l/m 2,2 km/h (1 Bft) W-NW 293 5 min 0,000 mm 3,0 UV-I 940 W/m 13,0 C 28,3 C 4,0 km/h (1 Bft) 0,00 %
15.07.2015 15:45 28,3 C 41 % 1016,1 hPa 0,0 l/m 0,4 km/h (0 Bft) O-NO 69 5 min 0,000 mm 4,0 UV-I 548 W/m 13,8 C 28,3 C 4,0 km/h (1 Bft) 0,00 %
15.07.2015 15:50 28,1 C 41 % 1015,9 hPa 0,0 l/m 0,0 km/h (0 Bft) N 359 5 min 0,000 mm 4,0 UV-I 960 W/m 13,6 C 28,1 C 0,0 km/h (0 Bft) 0,00 %
15.07.2015 15:55 28,2 C 41 % 1015,9 hPa 0,0 l/m 0,4 km/h (0 Bft) S-SW 207 5 min 0,000 mm 3,0 UV-I 890 W/m 13,7 C 28,2 C 4,0 km/h (1 Bft) 0,00 %
15.07.2015 16:00 28,3 C 42 % 1015,9 hPa 0,0 l/m 0,0 km/h (0 Bft) O-NO 58 5 min 0,000 mm 3,0 UV-I 887 W/m 14,1 C 28,3 C 0,0 km/h (0 Bft) 0,00 %
15.07.2015 16:05 28,4 C 40 % 1016,0 hPa 0,0 l/m 0,0 km/h (0 Bft) N-NO 31 5 min 0,000 mm 3,0 UV-I 914 W/m 13,5 C 28,4 C 0,0 km/h (0 Bft) 0,00 %
15.07.2015 16:10 28,5 C 41 % 1015,9 hPa 0,0 l/m 0,7 km/h (0 Bft) NO 36 5 min 0,000 mm 2,0 UV-I 835 W/m 13,9 C 28,5 C 4,0 km/h (1 Bft) 0,00 %
15.07.2015 16:15 28,1 C 42 % 1016,0 hPa 0,0 l/m 0,0 km/h (0 Bft) NO 55 5 min 0,000 mm 3,0 UV-I 749 W/m 14,0 C 28,1 C 0,0 km/h (0 Bft) 0,00 %
15.07.2015 16:20 27,6 C 44 % 1015,9 hPa 0,0 l/m 2,2 km/h (1 Bft) NW 325 5 min 0,000 mm 3,0 UV-I 880 W/m 14,2 C 27,6 C 4,0 km/h (1 Bft) 0,00 %
15.07.2015 16:25 27,5 C 42 % 1015,9 hPa 0,0 l/m 0,7 km/h (0 Bft) NW 325 5 min 0,000 mm 3,0 UV-I 881 W/m 13,4 C 27,5 C 4,0 km/h (1 Bft) 0,00 %
15.07.2015 16:30 27,7 C 41 % 1016,0 hPa 0,0 l/m 4,3 km/h (1 Bft) N-NW 338 5 min 0,000 mm 3,0 UV-I 871 W/m 13,2 C 27,7 C 7,9 km/h (2 Bft) 0,00 %
15.07.2015 16:35 28,1 C 39 % 1015,6 hPa 0,0 l/m 0,0 km/h (0 Bft) NO 47 5 min 0,000 mm 3,0 UV-I 866 W/m 12,8 C 28,1 C 0,0 km/h (0 Bft) 0,00 %
15.07.2015 16:40 28,4 C 41 % 1015,8 hPa 0,0 l/m 9,0 km/h (2 Bft) W-NW 302 0 min 0,000 mm 3,0 UV-I 221 W/m 13,9 C 28,0 C 11,9 km/h (2 Bft) 0,00 %
15.07.2015 16:45 28,5 C 39 % 1015,8 hPa 0,0 l/m 3,2 km/h (1 Bft) NW 310 5 min 0,000 mm 3,0 UV-I 854 W/m 13,2 C 28,5 C 7,9 km/h (2 Bft) 0,00 %
15.07.2015 16:50 28,6 C 39 % 1015,7 hPa 0,0 l/m 2,2 km/h (1 Bft) N-NO 28 5 min 0,000 mm 3,0 UV-I 854 W/m 13,3 C 28,6 C 4,0 km/h (1 Bft) 0,00 %
15.07.2015 16:55 28,7 C 39 % 1015,7 hPa 0,0 l/m 0,7 km/h (0 Bft) NW 319 5 min 0,000 mm 2,0 UV-I 521 W/m 13,4 C 28,7 C 4,0 km/h (1 Bft) 0,00 %
15.07.2015 17:00 28,7 C 41 % 1015,7 hPa 0,0 l/m 3,2 km/h (1 Bft) N-NW 346 5 min 0,000 mm 2,0 UV-I 814 W/m 14,1 C 28,7 C 7,9 km/h (2 Bft) 0,00 %
15.07.2015 17:05 28,6 C 39 % 1015,6 hPa 0,0 l/m 0,0 km/h (0 Bft) N-NW 348 5 min 0,000 mm 1,0 UV-I 842 W/m 13,3 C 28,6 C 0,0 km/h (0 Bft) 0,00 %
15.07.2015 17:10 28,4 C 41 % 1015,7 hPa 0,0 l/m 0,0 km/h (0 Bft) N-NO 29 5 min 0,000 mm 2,0 UV-I 839 W/m 13,9 C 28,4 C 0,0 km/h (0 Bft) 0,00 %
15.07.2015 17:15 28,3 C 40 % 1015,8 hPa 0,0 l/m 0,0 km/h (0 Bft) NO 40 5 min 0,000 mm 2,0 UV-I 782 W/m 13,4 C 28,3 C 0,0 km/h (0 Bft) 0,00 %
15.07.2015 17:20 28,1 C 41 % 1015,6 hPa 0,0 l/m 1,4 km/h (1 Bft) S-SW 196 5 min 0,000 mm 2,0 UV-I 781 W/m 13,6 C 28,1 C 4,0 km/h (1 Bft) 0,00 %
15.07.2015 17:25 28,0 C 41 % 1015,7 hPa 0,0 l/m 0,0 km/h (0 Bft) N-NW 336 5 min 0,000 mm 2,0 UV-I 763 W/m 13,5 C 28,0 C 0,0 km/h (0 Bft) 0,00 %
15.07.2015 17:30 28,0 C 41 % 1015,6 hPa 0,0 l/m 1,8 km/h (1 Bft) W-NW 297 5 min 0,000 mm 2,0 UV-I 758 W/m 13,5 C 28,0 C 4,0 km/h (1 Bft) 0,00 %
15.07.2015 17:35 28,2 C 41 % 1015,5 hPa 0,0 l/m 4,3 km/h (1 Bft) W-SW 256 5 min 0,000 mm 2,0 UV-I 730 W/m 13,7 C 28,2 C 7,9 km/h (2 Bft) 0,00 %
15.07.2015 17:40 28,5 C 42 % 1015,4 hPa 0,0 l/m 0,7 km/h (0 Bft) O-NO 64 5 min 0,000 mm 1,0 UV-I 695 W/m 14,3 C 28,5 C 4,0 km/h (1 Bft) 0,00 %
15.07.2015 17:45 28,6 C 40 % 1015,6 hPa 0,0 l/m 1,8 km/h (1 Bft) N 350 5 min 0,000 mm 1,0 UV-I 692 W/m 13,7 C 28,6 C 4,0 km/h (1 Bft) 0,00 %
15.07.2015 17:50 28,4 C 41 % 1015,8 hPa 0,0 l/m 2,2 km/h (1 Bft) W 280 5 min 0,000 mm 1,0 UV-I 692 W/m 13,9 C 28,4 C 4,0 km/h (1 Bft) 0,00 %
15.07.2015 17:55 28,4 C 41 % 1015,5 hPa 0,0 l/m 0,0 km/h (0 Bft) N-NO 14 5 min 0,000 mm 1,0 UV-I 692 W/m 13,9 C 28,4 C 0,0 km/h (0 Bft) 0,00 %
15.07.2015 18:00 28,5 C 39 % 1015,4 hPa 0,0 l/m 0,0 km/h (0 Bft) NO 40 5 min 0,000 mm 1,0 UV-I 659 W/m 13,2 C 28,5 C 0,0 km/h (0 Bft) 0,00 %
15.07.2015 18:05 28,6 C 39 % 1015,3 hPa 0,0 l/m 0,0 km/h (0 Bft) N-NW 333 5 min 0,000 mm 1,0 UV-I 657 W/m 13,3 C 28,6 C 0,0 km/h (0 Bft) 0,00 %
15.07.2015 18:10 28,5 C 41 % 1015,4 hPa 0,0 l/m 0,4 km/h (0 Bft) N-NW 348 5 min 0,000 mm 1,0 UV-I 651 W/m 13,9 C 28,5 C 4,0 km/h (1 Bft) 0,00 %
15.07.2015 18:15 28,3 C 41 % 1015,5 hPa 0,0 l/m 0,4 km/h (0 Bft) N-NW 340 5 min 0,000 mm 1,0 UV-I 632 W/m 13,8 C 28,3 C 4,0 km/h (1 Bft) 0,00 %
15.07.2015 18:20 28,4 C 41 % 1015,4 hPa 0,0 l/m 0,0 km/h (0 Bft) NO 51 5 min 0,000 mm 1,0 UV-I 616 W/m 13,9 C 28,4 C 0,0 km/h (0 Bft) 0,00 %
15.07.2015 18:25 28,5 C 41 % 1015,1 hPa 0,0 l/m 0,0 km/h (0 Bft) N-NO 27 5 min 0,000 mm 1,0 UV-I 599 W/m 13,9 C 28,5 C 0,0 km/h (0 Bft) 0,00 %
15.07.2015 18:30 28,6 C 41 % 1015,1 hPa 0,0 l/m 4,0 km/h (1 Bft) N-NW 331 5 min 0,000 mm 1,0 UV-I 578 W/m 14,0 C 28,6 C 4,0 km/h (1 Bft) 0,00 %
15.07.2015 18:35 28,5 C 41 % 1015,3 hPa 0,0 l/m 0,0 km/h (0 Bft) O 79 5 min 0,000 mm 1,0 UV-I 553 W/m 13,9 C 28,5 C 0,0 km/h (0 Bft) 0,00 %
15.07.2015 18:40 28,3 C 42 % 1015,3 hPa 0,0 l/m 0,0 km/h (0 Bft) NO 43 5 min 0,000 mm 1,0 UV-I 518 W/m 14,1 C 28,3 C 0,0 km/h (0 Bft) 0,00 %
15.07.2015 18:45 28,3 C 41 % 1015,4 hPa 0,0 l/m 0,0 km/h (0 Bft) NO 40 5 min 0,000 mm 1,0 UV-I 497 W/m 13,8 C 28,3 C 0,0 km/h (0 Bft) 0,00 %
15.07.2015 18:50 28,4 C 41 % 1015,4 hPa 0,0 l/m 0,7 km/h (0 Bft) W 263 5 min 0,000 mm 1,0 UV-I 477 W/m 13,9 C 28,4 C 4,0 km/h (1 Bft) 0,00 %
15.07.2015 18:55 28,3 C 41 % 1015,3 hPa 0,0 l/m 1,8 km/h (1 Bft) N 352 5 min 0,000 mm 1,0 UV-I 455 W/m 13,8 C 28,3 C 4,0 km/h (1 Bft) 0,00 %
15.07.2015 19:00 28,0 C 42 % 1015,2 hPa 0,0 l/m 4,3 km/h (1 Bft) NW 320 5 min 0,000 mm 1,0 UV-I 430 W/m 13,9 C 28,0 C 7,9 km/h (2 Bft) 0,00 %
15.07.2015 19:05 27,6 C 42 % 1015,2 hPa 0,0 l/m 0,4 km/h (0 Bft) NO 46 5 min 0,000 mm 1,0 UV-I 406 W/m 13,5 C 27,6 C 4,0 km/h (1 Bft) 0,00 %
15.07.2015 19:10 27,3 C 43 % 1015,3 hPa 0,0 l/m 0,0 km/h (0 Bft) NO 44 5 min 0,000 mm 1,0 UV-I 373 W/m 13,6 C 27,3 C 0,0 km/h (0 Bft) 0,00 %
15.07.2015 19:15 27,2 C 42 % 1015,2 hPa 0,0 l/m 0,0 km/h (0 Bft) N 354 5 min 0,000 mm 1,0 UV-I 344 W/m 13,2 C 27,2 C 0,0 km/h (0 Bft) 0,00 %
15.07.2015 19:20 27,1 C 43 % 1015,3 hPa 0,0 l/m 0,0 km/h (0 Bft) NO 50 5 min 0,000 mm 1,0 UV-I 302 W/m 13,4 C 27,1 C 0,0 km/h (0 Bft) 0,00 %
15.07.2015 19:25 27,0 C 43 % 1015,2 hPa 0,0 l/m 0,0 km/h (0 Bft) O-NO 77 5 min 0,000 mm 1,0 UV-I 276 W/m 13,3 C 27,0 C 0,0 km/h (0 Bft) 0,00 %
15.07.2015 19:30 27,1 C 43 % 1015,3 hPa 0,0 l/m 0,0 km/h (0 Bft) NO 49 5 min 0,000 mm 1,0 UV-I 238 W/m 13,4 C 27,1 C 0,0 km/h (0 Bft) 0,00 %
15.07.2015 19:35 27,2 C 43 % 1015,3 hPa 0,0 l/m 0,0 km/h (0 Bft) N-NO 32 5 min 0,000 mm 1,0 UV-I 214 W/m 13,5 C 27,2 C 0,0 km/h (0 Bft) 0,00 %
15.07.2015 19:40 27,2 C 43 % 1015,5 hPa 0,0 l/m 0,0 km/h (0 Bft) NO 36 5 min 0,000 mm 1,0 UV-I 149 W/m 13,5 C 27,2 C 0,0 km/h (0 Bft) 0,00 %
15.07.2015 19:45 27,0 C 43 % 1015,6 hPa 0,0 l/m 0,0 km/h (0 Bft) N-NO 12 5 min 0,000 mm 0,0 UV-I 155 W/m 13,3 C 27,0 C 0,0 km/h (0 Bft) 0,00 %
15.07.2015 19:50 26,9 C 42 % 1015,5 hPa 0,0 l/m 0,0 km/h (0 Bft) NO 53 5 min 0,000 mm 0,0 UV-I 132 W/m 12,9 C 26,9 C 0,0 km/h (0 Bft) 0,00 %
15.07.2015 19:55 26,7 C 42 % 1015,5 hPa 0,0 l/m 0,0 km/h (0 Bft) NO 44 0 min 0,000 mm 0,0 UV-I 50 W/m 12,7 C 26,7 C 0,0 km/h (0 Bft) 0,00 %
15.07.2015 20:00 26,5 C 43 % 1015,7 hPa 0,0 l/m 0,0 km/h (0 Bft) NO 48 0 min 0,000 mm 0,0 UV-I 33 W/m 12,9 C 26,5 C 0,0 km/h (0 Bft) 0,00 %
15.07.2015 20:05 26,3 C 44 % 1015,8 hPa 0,0 l/m 0,0 km/h (0 Bft) NO 49 0 min 0,000 mm 0,0 UV-I 24 W/m 13,1 C 26,3 C 0,0 km/h (0 Bft) 0,00 %
15.07.2015 20:10 26,1 C 46 % 1015,6 hPa 0,0 l/m 0,0 km/h (0 Bft) NO 50 0 min 0,000 mm 0,0 UV-I 17 W/m 13,6 C 26,1 C 0,0 km/h (0 Bft) 0,00 %
15.07.2015 20:15 25,8 C 47 % 1015,8 hPa 0,0 l/m 0,0 km/h (0 Bft) O-NO 65 0 min 0,000 mm 0,0 UV-I 7 W/m 13,6 C 25,8 C 0,0 km/h (0 Bft) 0,00 %
15.07.2015 20:20 25,4 C 47 % 1015,8 hPa 0,0 l/m 0,0 km/h (0 Bft) NO 36 0 min 0,000 mm 0,0 UV-I 3 W/m 13,3 C 25,4 C 0,0 km/h (0 Bft) 0,00 %
15.07.2015 20:25 25,1 C 50 % 1015,9 hPa 0,0 l/m 0,0 km/h (0 Bft) NO 40 0 min 0,000 mm 0,0 UV-I 0 W/m 13,9 C 25,1 C 0,0 km/h (0 Bft) 0,00 %
15.07.2015 20:30 24,7 C 51 % 1015,9 hPa 0,0 l/m 0,0 km/h (0 Bft) O-NO 76 0 min 0,000 mm 0,0 UV-I 0 W/m 13,9 C 24,7 C 0,0 km/h (0 Bft) 0,00 %
15.07.2015 20:35 24,2 C 53 % 1016,1 hPa 0,0 l/m 0,0 km/h (0 Bft) N-NO 28 0 min 0,000 mm 0,0 UV-I 0 W/m 14,0 C 24,2 C 0,0 km/h (0 Bft) 0,00 %
15.07.2015 20:40 23,6 C 53 % 1016,1 hPa 0,0 l/m 0,0 km/h (0 Bft) N-NO 32 0 min 0,000 mm 0,0 UV-I 0 W/m 13,4 C 23,6 C 0,0 km/h (0 Bft) 0,00 %
15.07.2015 20:45 23,2 C 55 % 1016,2 hPa 0,0 l/m 0,0 km/h (0 Bft) O-NO 65 0 min 0,000 mm 0,0 UV-I 0 W/m 13,6 C 23,2 C 0,0 km/h (0 Bft) 0,00 %
15.07.2015 20:50 22,9 C 56 % 1016,1 hPa 0,0 l/m 0,0 km/h (0 Bft) NO 35 0 min 0,000 mm 0,0 UV-I 0 W/m 13,6 C 22,9 C 0,0 km/h (0 Bft) 0,00 %
15.07.2015 20:55 22,6 C 56 % 1016,3 hPa 0,0 l/m 0,0 km/h (0 Bft) NO 42 0 min 0,000 mm 0,0 UV-I 0 W/m 13,4 C 22,6 C 0,0 km/h (0 Bft) 0,00 %
15.07.2015 21:00 22,4 C 57 % 1016,3 hPa 0,0 l/m 0,0 km/h (0 Bft) NO 52 0 min 0,000 mm 0,0 UV-I 0 W/m 13,5 C 22,4 C 0,0 km/h (0 Bft) 0,00 %
15.07.2015 21:05 22,1 C 61 % 1016,6 hPa 0,0 l/m 0,7 km/h (0 Bft) O-NO 69 0 min 0,000 mm 0,0 UV-I 0 W/m 14,2 C 22,1 C 4,0 km/h (1 Bft) 0,00 %
15.07.2015 21:10 21,8 C 62 % 1016,5 hPa 0,0 l/m 1,4 km/h (1 Bft) O-NO 67 0 min 0,000 mm 0,0 UV-I 0 W/m 14,2 C 21,8 C 4,0 km/h (1 Bft) 0,00 %
15.07.2015 21:15 21,4 C 63 % 1016,8 hPa 0,0 l/m 0,0 km/h (0 Bft) O-NO 57 0 min 0,000 mm 0,0 UV-I 0 W/m 14,1 C 21,4 C 0,0 km/h (0 Bft) 0,00 %
15.07.2015 21:20 21,0 C 64 % 1016,8 hPa 0,0 l/m 0,0 km/h (0 Bft) O-NO 67 0 min 0,000 mm 0,0 UV-I 0 W/m 13,9 C 21,0 C 0,0 km/h (0 Bft) 0,00 %
15.07.2015 21:25 20,9 C 63 % 1017,0 hPa 0,0 l/m 0,0 km/h (0 Bft) N-NO 25 0 min 0,000 mm 0,0 UV-I 0 W/m 13,6 C 20,9 C 0,0 km/h (0 Bft) 0,00 %
15.07.2015 21:30 20,7 C 64 % 1017,1 hPa 0,0 l/m 0,0 km/h (0 Bft) NO 36 0 min 0,000 mm 0,0 UV-I 0 W/m 13,6 C 20,7 C 0,0 km/h (0 Bft) 0,00 %
15.07.2015 21:35 20,6 C 66 % 1017,1 hPa 0,0 l/m 0,0 km/h (0 Bft) NO 46 0 min 0,000 mm 0,0 UV-I 0 W/m 14,0 C 20,6 C 0,0 km/h (0 Bft) 0,00 %
15.07.2015 21:40 20,4 C 69 % 1017,2 hPa 0,0 l/m 0,0 km/h (0 Bft) NO 51 0 min 0,000 mm 0,0 UV-I 0 W/m 14,5 C 20,4 C 0,0 km/h (0 Bft) 0,00 %
15.07.2015 21:45 20,2 C 69 % 1017,2 hPa 0,0 l/m 0,0 km/h (0 Bft) NO 50 0 min 0,000 mm 0,0 UV-I 0 W/m 14,3 C 20,2 C 0,0 km/h (0 Bft) 0,00 %
15.07.2015 21:50 20,0 C 70 % 1017,4 hPa 0,0 l/m 0,0 km/h (0 Bft) NO 54 0 min 0,000 mm 0,0 UV-I 0 W/m 14,4 C 20,0 C 0,0 km/h (0 Bft) 0,00 %
15.07.2015 21:55 19,9 C 70 % 1017,3 hPa 0,0 l/m 0,0 km/h (0 Bft) NO 46 0 min 0,000 mm 0,0 UV-I 0 W/m 14,3 C 19,9 C 0,0 km/h (0 Bft) 0,00 %
15.07.2015 22:00 19,8 C 70 % 1017,2 hPa 0,0 l/m 0,0 km/h (0 Bft) NO 43 0 min 0,000 mm 0,0 UV-I 0 W/m 14,2 C 19,8 C 0,0 km/h (0 Bft) 0,00 %
15.07.2015 22:05 19,7 C 70 % 1017,2 hPa 0,0 l/m 0,0 km/h (0 Bft) NO 41 0 min 0,000 mm 0,0 UV-I 0 W/m 14,1 C 19,7 C 0,0 km/h (0 Bft) 0,00 %
15.07.2015 22:10 19,6 C 71 % 1017,5 hPa 0,0 l/m 0,0 km/h (0 Bft) NO 34 0 min 0,000 mm 0,0 UV-I 0 W/m 14,2 C 19,6 C 0,0 km/h (0 Bft) 0,00 %
15.07.2015 22:15 19,4 C 72 % 1017,5 hPa 0,0 l/m 0,0 km/h (0 Bft) NO 44 0 min 0,000 mm 0,0 UV-I 0 W/m 14,2 C 19,4 C 0,0 km/h (0 Bft) 0,00 %
15.07.2015 22:20 19,2 C 73 % 1017,7 hPa 0,0 l/m 0,0 km/h (0 Bft) O-NO 58 0 min 0,000 mm 0,0 UV-I 0 W/m 14,2 C 19,2 C 0,0 km/h (0 Bft) 0,00 %
15.07.2015 22:25 19,0 C 73 % 1017,6 hPa 0,0 l/m 0,0 km/h (0 Bft) NO 45 0 min 0,000 mm 0,0 UV-I 0 W/m 14,0 C 19,0 C 0,0 km/h (0 Bft) 0,00 %
15.07.2015 22:30 19,0 C 74 % 1017,8 hPa 0,0 l/m 0,0 km/h (0 Bft) NO 36 0 min 0,000 mm 0,0 UV-I 0 W/m 14,3 C 19,0 C 0,0 km/h (0 Bft) 0,00 %
15.07.2015 22:35 18,9 C 74 % 1017,7 hPa 0,0 l/m 0,0 km/h (0 Bft) NO 36 0 min 0,000 mm 0,0 UV-I 0 W/m 14,2 C 18,9 C 0,0 km/h (0 Bft) 0,00 %
15.07.2015 22:40 18,8 C 74 % 1017,7 hPa 0,0 l/m 0,0 km/h (0 Bft) NO 36 0 min 0,000 mm 0,0 UV-I 0 W/m 14,1 C 18,8 C 0,0 km/h (0 Bft) 0,00 %
15.07.2015 22:45 18,7 C 76 % 1017,6 hPa 0,0 l/m 0,0 km/h (0 Bft) NO 46 0 min 0,000 mm 0,0 UV-I 0 W/m 14,4 C 18,7 C 0,0 km/h (0 Bft) 0,00 %
15.07.2015 22:50 18,4 C 76 % 1017,5 hPa 0,0 l/m 0,0 km/h (0 Bft) NO 50 0 min 0,000 mm 0,0 UV-I 0 W/m 14,1 C 18,4 C 0,0 km/h (0 Bft) 0,00 %
15.07.2015 22:55 18,3 C 77 % 1017,9 hPa 0,0 l/m 0,0 km/h (0 Bft) NO 47 0 min 0,000 mm 0,0 UV-I 0 W/m 14,2 C 18,3 C 0,0 km/h (0 Bft) 0,00 %
15.07.2015 23:00 18,2 C 78 % 1017,9 hPa 0,0 l/m 0,0 km/h (0 Bft) NO 47 0 min 0,000 mm 0,0 UV-I 0 W/m 14,3 C 18,2 C 0,0 km/h (0 Bft) 0,00 %
15.07.2015 23:05 18,1 C 79 % 1017,8 hPa 0,0 l/m 0,0 km/h (0 Bft) NO 44 0 min 0,000 mm 0,0 UV-I 0 W/m 14,4 C 18,1 C 0,0 km/h (0 Bft) 0,00 %
15.07.2015 23:10 18,0 C 79 % 1018,0 hPa 0,0 l/m 0,0 km/h (0 Bft) NO 44 0 min 0,000 mm 0,0 UV-I 0 W/m 14,3 C 18,0 C 0,0 km/h (0 Bft) 0,00 %
15.07.2015 23:15 17,8 C 79 % 1017,9 hPa 0,0 l/m 0,0 km/h (0 Bft) NO 44 0 min 0,000 mm 0,0 UV-I 0 W/m 14,1 C 17,8 C 0,0 km/h (0 Bft) 0,00 %
15.07.2015 23:20 17,7 C 79 % 1018,2 hPa 0,0 l/m 0,0 km/h (0 Bft) NO 38 0 min 0,000 mm 0,0 UV-I 0 W/m 14,0 C 17,7 C 0,0 km/h (0 Bft) 0,00 %
15.07.2015 23:25 17,6 C 81 % 1018,1 hPa 0,0 l/m 0,0 km/h (0 Bft) NO 43 0 min 0,000 mm 0,0 UV-I 0 W/m 14,3 C 17,6 C 0,0 km/h (0 Bft) 0,00 %
15.07.2015 23:30 17,4 C 81 % 1018,1 hPa 0,0 l/m 0,0 km/h (0 Bft) NO 47 0 min 0,000 mm 0,0 UV-I 0 W/m 14,1 C 17,4 C 0,0 km/h (0 Bft) 0,00 %
15.07.2015 23:35 17,3 C 82 % 1018,0 hPa 0,0 l/m 0,0 km/h (0 Bft) NO 36 0 min 0,000 mm 0,0 UV-I 0 W/m 14,2 C 17,3 C 0,0 km/h (0 Bft) 0,00 %
15.07.2015 23:40 17,2 C 82 % 1018,1 hPa 0,0 l/m 0,0 km/h (0 Bft) NO 43 0 min 0,000 mm 0,0 UV-I 0 W/m 14,1 C 17,2 C 0,0 km/h (0 Bft) 0,00 %
15.07.2015 23:45 17,2 C 82 % 1018,2 hPa 0,0 l/m 0,0 km/h (0 Bft) NO 53 0 min 0,000 mm 0,0 UV-I 0 W/m 14,1 C 17,2 C 0,0 km/h (0 Bft) 0,00 %
15.07.2015 23:50 17,1 C 82 % 1018,3 hPa 0,0 l/m 0,0 km/h (0 Bft) NO 44 0 min 0,000 mm 0,0 UV-I 0 W/m 14,0 C 17,1 C 0,0 km/h (0 Bft) 0,00 %
_ Min-Zeit 23:50 15:40 18:25 - 00:00 - - - - - - 11:40 23:50 00:00 00:00
Minimum _ 17,1 C 39 % 1015,1 hPa - 0,0 km/h (0 Bft) - - - - - - 12,4 C 17,1 C 0,0 km/h (0 Bft) 0,00 %
_ Max-Zeit 16:55 02:30 07:25 00:00 10:45 - - 07:35 00:00 12:30 13:45 07:15 16:55 10:30 00:00
Maximum _ 28,7 C 85 % 1018,7 hPa 0,0 l/m 11,9 km/h
NW (2 Bft)
- - 5 min 0,000 mm 6,0 UV-I 1217 W/m 15,4 C 28,7 C 15,8 km/h
NW (3 Bft)
0,00 %
Durchschnitt _ 22,6 C 62 % 1017,1 hPa #0,0 l/m 1,1 km/h (1 Bft) N-NW - #9:30 h #0,000 mm 2,6 UV-I 516 W/m 14,3 C 22,6 C 2,2 km/h (1 Bft) 0,00 %